Aérodrome :
LOGIN :

S'inscrire | Disclaimer

   EN    FR    IT 

 










Légende :    VFR   VFR Marginal   IFR   IFR Intensif   IFR Très Intensif
Visi : 
Plafond : 
>= 8 km
>= 3000ft
5 à 8 km
1000 à 3000 ft
1500m à 5 km
500 à 1000 ft
800 à 1500m
200 à 500 ft
< 800m
< 200 ft
Symboles :   Orages  Brouillard  Fortes neiges  Fortes précipitations  Vent > 20 kt
SIGMETs :   Divers  Orages  Givrage  Turbulence  Onde Orograph.  Cendres Volcan.






- Altitude de l'aérodrome : 1682 ft
- Code IATA : VIT


LEVT - Vitoria Gasteiz

DERNIER METAR :
  • 201030Z 17003KT 9999 FEW030 14/04 Q1015

METARs EXPIRÉS :
  • 201000Z 03001KT 9999 FEW035 SCT055 13/04 Q1015
  • 200930Z 26003KT 230V330 9999 FEW035 BKN055 11/04 Q1015
  • 200900Z 25003KT 210V290 9999 -DZ FEW035 BKN055 09/05 Q1015
  • 200830Z 00000KT 9999 -DZ FEW035 BKN055 09/04 Q1016

TAF TAF LEVT
Valide du 20 à 06h jusqu'au 21 à 06h UTC


200500Z 2006/2106 VRB05KT 9999 SCT050 TX15/2014Z TN01/2006Z
PROB30
TEMPO 2012/2106 RA



MET'MAP, la Météo Aéronautique d'un coup d'oeil ! - Copyright ORBIFLY Décembre 2007 - Disclaimer

ORBIFLY MET'MAP TEAM :

Programmation & Développement : Alexandra Zaïnal
Sur une idée originale de : Baudouin d'Aumeries
Assistance à la programmation : Marc-Olivier Méhu
Soutien technique & logistique : Manuel Goepfert

Contact : metmap@orbifly.com




SOURCES & CREDITS :

   NOAA